Kotzebue, AK

8:12 PM AKDT on September 30, 2016 (GMT -0800)
Wien Memorial

Weather History for PAOT - August, 2014

Change the Weather History Date:

Saturday, August 9, 2014

  Actual Average Record
Temperature  
Mean Temperature 66 °F 53 °F  
Max Temperature 71 °F 57 °F 73 °F (2014)
Min Temperature 60 °F 49 °F 33 °F (1902)
Degree Days  
Heating Degree Days 0 12  
Month to date heating degree days 24 102  
Since 1 June heating degree days 995 1009  
Since 1 July heating degree days 378 428  
Cooling Degree Days 1    
Month to date cooling degree days 3  
Year to date cooling degree days 11  
Since 1 June cooling degree days 11  
Growing Degree Days 16 (Base 50)    
Moisture  
Dew Point 50 °F    
Average Humidity 0    
Maximum Humidity 0    
Minimum Humidity 0    
Precipitation  
Precipitation T in 0.07 in 0.98 in (1956)
Month to date precipitation 0.11 0.65  
Year to date precipitation 5.34 5.35  
Snow  
Snow 0.00 in 0.00 in 0.00 in (2016)
Month to date snowfall 0.0 0.0  
Since 1 June snowfall 0.0 0.0  
Since 1 July snowfall 0.0 0.0  
Snow Depth 0.00 in    
Sea Level Pressure  
Sea Level Pressure 29.68 in    
Wind  
Wind Speed 0 mph (ENE)    
Max Wind Speed 28 mph    
Max Gust Speed 34 mph    
Visibility 10 miles    
Events      
T = Trace of Precipitation, MM = Missing Value Source: NWS Daily Summary

Daily Weather History Graph

Daily Weather History Graph

Search for Another Location

Airport or City:

Trip Planner

Search our weather history database for the weather conditions in past years. The results will help you decide how hot, cold, wet, or windy it might be!

Date:

Astronomy

Aug. 09, 2014 Rise Set
Actual Time 5:58 AM AKDT 11:50 PM AKDT
Civil Twilight 4:16 AM AKDT 1:27 AM AKDT
Nautical Twilight Sun does not set Sun does not set
Astronomical Twilight Sun does not set Sun does not set
Moon 10:36 PM AKDT (8/9) 4:57 AM AKDT (8/9)
Length of Visible Light 21h 11m
Length of Day
17h 52m
Waxing Gibbous, 99% of the Moon is Illuminated
Aug 9
Waxing Gibbous
Aug 10
Full
Aug 17
Last Quarter
Aug 25
New
Sep 2
First Quarter

Hourly Weather History & Observations

Time (AKDT) Temp. Dew Point Humidity Pressure Visibility Wind Dir Wind Speed Gust Speed Precip Events Conditions
12:53 AM 64.0 °F 53.1 °F 67% 29.63 in 10.0 mi ENE 17.3 mph - N/A   Mostly Cloudy
1:53 AM 63.0 °F 52.0 °F 67% 29.64 in 10.0 mi ENE 18.4 mph - N/A   Mostly Cloudy
2:53 AM 63.0 °F 50.0 °F 63% 29.65 in 10.0 mi ENE 18.4 mph - N/A   Mostly Cloudy
3:53 AM 62.1 °F 50.0 °F 65% 29.66 in 10.0 mi East 13.8 mph - N/A   Mostly Cloudy
4:53 AM 62.1 °F 48.9 °F 62% 29.66 in 10.0 mi East 20.7 mph - N/A   Mostly Cloudy
5:53 AM 60.1 °F 50.0 °F 69% 29.67 in 10.0 mi ENE 17.3 mph - N/A   Mostly Cloudy
6:53 AM 61.0 °F 48.9 °F 64% 29.68 in 10.0 mi ENE 20.7 mph - N/A   Mostly Cloudy
7:53 AM 61.0 °F 48.9 °F 64% 29.68 in 10.0 mi East 19.6 mph - N/A   Overcast
8:53 AM 62.1 °F 50.0 °F 65% 29.69 in 10.0 mi East 18.4 mph - 0.00 in   Overcast
9:53 AM 62.1 °F 48.9 °F 62% 29.70 in 10.0 mi East 21.9 mph - N/A   Mostly Cloudy
10:53 AM 64.9 °F 48.9 °F 56% 29.70 in 10.0 mi East 21.9 mph - N/A   Mostly Cloudy
11:53 AM 66.9 °F 50.0 °F 54% 29.71 in 10.0 mi East 21.9 mph 27.6 mph N/A   Mostly Cloudy
12:53 PM 68.0 °F 48.0 °F 49% 29.71 in 10.0 mi East 23.0 mph 33.4 mph N/A   Scattered Clouds
1:53 PM 69.1 °F 48.0 °F 47% 29.71 in 10.0 mi East 21.9 mph - N/A   Scattered Clouds
2:53 PM 71.1 °F 48.9 °F 45% 29.70 in 10.0 mi East 19.6 mph - N/A   Scattered Clouds
3:53 PM 72.0 °F 48.0 °F 43% 29.69 in 10.0 mi East 15.0 mph 26.5 mph N/A   Scattered Clouds
4:53 PM 72.0 °F 48.9 °F 44% 29.69 in 10.0 mi East 16.1 mph - N/A   Scattered Clouds
5:53 PM 73.0 °F 48.9 °F 42% 29.69 in 10.0 mi East 13.8 mph - N/A   Scattered Clouds
6:53 PM 72.0 °F 50.0 °F 46% 29.68 in 10.0 mi East 10.4 mph - N/A   Clear
7:53 PM 73.4 °F 48.2 °F 41% 29.67 in 10.0 mi ENE 8.1 mph - N/A   Scattered Clouds
8:53 PM 72.0 °F 52.0 °F 49% 29.68 in 10.0 mi ENE 9.2 mph - N/A   Scattered Clouds
9:53 PM 70.0 °F 52.0 °F 53% 29.68 in 10.0 mi East 9.2 mph - N/A   Clear
10:53 PM 66.9 °F 55.9 °F 68% 29.69 in 10.0 mi NE 8.1 mph - N/A   Clear
11:53 PM 64.9 °F 53.1 °F 65% 29.70 in 10.0 mi NE 10.4 mph - N/A   Scattered Clouds